Location: Middlebury
(44.0153°N, 73.1678°W)
Time: 13:32:52
(UTC-04:00)

QB50P2 - Pass Details

Date: 23 June 2024
Orbit: 562 x 579 km, 98.0° (Epoch: 14 July)

Event Time Altitude Azimuth Distance (km) Brightness Sun altitude
Rises 02:47:35 0° 27° (NNE) 2,765 ? -17.8°
Reaches altitude 10° 02:50:08 10° 43° (NE) 1,862 ? -17.6°
Maximum altitude 02:53:17 22° 94° (E) 1,263 ? -17.3°
Enters shadow 02:56:18 11° 145° (SE) 1,815 ? -17.1°
